Location: Cointrin
(46.2167°N, 6.1167°E)
Time: 19:04:01
(UTC+00:00)

Cosmos 2208 Rocket - Pass Details

Date: 08 February 2023
Orbit: 753 x 805 km, 74.0° (Epoch: 22 March)

Event Time Altitude Azimuth Distance (km) Brightness Sun altitude
Rises 19:12:17 0° 336° (NNW) 3,218 7.6 -24.9°
Reaches altitude 10° 19:14:39 10° 334° (NNW) 2,292 6.8 -25.3°
Maximum altitude 19:19:48 68° 252° (WSW) 821 4.2 -26.2°
Enters shadow 19:21:38 40° 183° (S) 1,121 4.7 -26.5°
